This is the latest recevied weather packets stored in our database for station/object DG6HD-13. If no packets are shown the sender has not sent any weather packets the latest 10 day(s).
| Time | Temp. | Humidity | Pressure | Rain* | Wind** | Luminosity | Snow |
|---|---|---|---|---|---|---|---|
| 1777840871 | 19.44° C | 37% | 1008.7 hPa | - | - | - | - |
| 1777839969 | 19.44° C | 37% | 1008.6 hPa | - | - | - | - |
| 1777839069 | 20° C | 36% | 1008.6 hPa | - | - | - | - |
| 1777838168 | 20° C | 36% | 1008.5 hPa | - | - | - | - |
| 1777837267 | 20.56° C | 36% | 1008.5 hPa | - | - | - | - |
| 1777836366 | 20.56° C | 36% | 1008.5 hPa | - | - | - | - |
| 1777835465 | 20.56° C | 36% | 1008.3 hPa | - | - | - | - |
| 1777834565 | 21.11° C | 35% | 1008.2 hPa | - | - | - | - |
| 1777833664 | 21.67° C | 36% | 1008.1 hPa | - | - | - | - |
| 1777832763 | 21.67° C | 36% | 1008.2 hPa | - | - | - | - |
| 1777831862 | 22.22° C | 36% | 1008.3 hPa | - | - | - | - |
| 1777830961 | 22.22° C | 38% | 1008.3 hPa | - | - | - | - |
| 1777830060 | 22.78° C | 39% | 1008.4 hPa | - | - | - | - |
| 1777829160 | 22.78° C | 42% | 1008.4 hPa | - | - | - | - |
| 1777828259 | 23.33° C | 43% | 1008.6 hPa | - | - | - | - |
| 1777827358 | 23.33° C | 43% | 1008.9 hPa | - | - | - | - |
| 1777826457 | 22.22° C | 47% | 1008.7 hPa | - | - | - | - |
| 1777825556 | 22.22° C | 47% | 1008.7 hPa | - | - | - | - |
| 1777824655 | 23.33° C | 40% | 1008.9 hPa | - | - | - | - |
| 1777823755 | 23.33° C | 37% | 1008.7 hPa | - | - | - | - |
| 1777822854 | 23.89° C | 37% | 1008.7 hPa | - | - | - | - |
| 1777821953 | 23.89° C | 36% | 1008.9 hPa | - | - | - | - |
| 1777821052 | 23.89° C | 37% | 1009.2 hPa | - | - | - | - |
| 1777820151 | 25.56° C | 38% | 1009.4 hPa | - | - | - | - |
| 1777819251 | 26.11° C | 38% | 1009.6 hPa | - | - | - | - |
* Rain since midnight (hover to see other rain measurements)
** Current wind speed in m/s (hover to see current wind gust speed)